DW2932 Weather Reports


time (UTC)temp
C
wind
direction
speed
KPH
gust
KPH
rain 1hr
cm
rain 24hr
cm
rain mn
cm
humidity
%
barometer
mb
20260503193122 27 119 0.0 6.4 0.00 0.00 0.00 29 1013.7
20260503192123 27 114 3.2 11.3 0.00 0.00 0.00 27 1013.8
20260503191117 27 116 3.2 12.9 0.00 0.00 0.00 28 1013.9
20260503190133 26 106 3.2 14.5 0.00 0.00 0.00 29 1014.0
20260503185129 26 171 1.6 12.9 0.00 0.00 0.00 29 1014.0
20260503184129 26 124 3.2 16.1 0.00 0.00 0.00 29 1014.2
20260503183127 26 95 4.8 14.5 0.00 0.00 0.00 30 1014.3
20260503182145 26 110 1.6 12.9 0.00 0.00 0.00 31 1014.3
20260503181120 25 103 4.8 17.7 0.00 0.00 0.00 32 1014.4
20260503180121 25 113 3.2 14.5 0.00 0.00 0.00 32 1014.5
20260503175118 25 117 4.8 16.1 0.00 0.00 0.00 31 1014.5
20260503174114 25 176 1.6 9.7 0.00 0.00 0.00 33 1014.6
20260503173116 25 116 0.0 12.9 0.00 0.00 0.00 35 1014.6
20260503172113 24 95 0.0 6.4 0.00 0.00 0.00 36 1014.7
20260503171111 23 95 1.6 6.4 0.00 0.00 0.00 39 1014.7
20260503170113 23 102 0.0 1.6 0.00 0.00 0.00 45 1014.8
20260503160118 18 177 0.0 0.0 0.00 0.00 0.00 56 1015.3
20260503150130 12 133 0.0 0.0 0.00 0.00 0.00 77 1015.5
20260503140118 5 133 0.0 0.0 0.00 0.00 0.00 95 1015.3
20260503131142 3 133 0.0 0.0 0.00 0.00 0.00 94 1015.0
20260503130118 3 133 0.0 0.0 0.00 0.00 0.00 94 1015.0
20260503120126 4 133 0.0 0.0 0.00 0.00 0.00 94 1015.1
20260503110116 5 133 0.0 0.0 0.00 0.00 0.00 93 1015.3
20260503100118 6 133 0.0 0.0 0.00 0.00 0.00 92 1015.2
20260503090121 7 133 0.0 0.0 0.00 0.00 0.00 91 1015.2
20260503081143 8 133 0.0 0.0 0.00 0.00 0.00 89 1015.2
20260503080119 8 133 0.0 0.0 0.00 0.00 0.00 88 1015.3
20260503072111 8 133 0.0 0.0 0.00 0.00 0.00 86 1015.4
20260503071123 9 133 0.0 0.0 0.00 0.00 0.00 85 1015.2
20260503070119 9 133 0.0 0.0 0.00 0.00 0.00 84 1015.3
20260503060126 11 133 0.0 0.0 0.00 0.00 0.00 77 1015.3
20260503055122 11 123 0.0 3.2 0.00 0.00 0.00 77 1015.2
20260503054118 11 134 0.0 0.0 0.00 0.00 0.00 76 1015.2
20260503053119 12 134 0.0 0.0 0.00 0.00 0.00 73 1015.2
20260503052116 12 134 0.0 0.0 0.00 0.00 0.00 73 1015.1
20260503051134 13 124 0.0 0.0 0.00 0.00 0.00 71 1015.1
20260503050149 13 127 0.0 3.2 0.00 0.00 0.00 68 1015.0
20260503045129 13 124 0.0 3.2 0.00 0.00 0.00 70 1014.9
20260503044124 13 124 0.0 4.8 0.00 0.00 0.00 69 1014.8
20260503043120 13 137 0.0 0.0 0.00 0.00 0.00 67 1014.8
20260503042138 14 136 0.0 0.0 0.00 0.00 0.00 66 1014.6
20260503041117 15 124 0.0 0.0 0.00 0.00 0.00 65 1014.4
20260503040134 15 150 0.0 0.0 0.00 0.00 0.00 63 1014.2
20260503035130 16 116 0.0 0.0 0.00 0.00 0.00 62 1014.1
20260503034126 16 116 0.0 0.0 0.00 0.00 0.00 59 1014.0
20260503033127 17 116 0.0 0.0 0.00 0.00 0.00 54 1013.9
20260503032123 19 116 0.0 0.0 0.00 0.00 0.00 51 1013.8
20260503031119 20 109 0.0 0.0 0.00 0.00 0.00 46 1013.7
20260503030120 21 109 0.0 1.6 0.00 0.00 0.00 37 1013.5
20260503025136 22 122 0.0 1.6 0.00 0.00 0.00 35 1013.4
20260503024113 23 122 0.0 8.0 0.00 0.00 0.00 33 1013.3
20260503023129 23 172 0.0 1.6 0.00 0.00 0.00 33 1013.2
20260503022110 23 165 0.0 8.0 0.00 0.00 0.00 32 1013.2
20260503021128 24 133 0.0 8.0 0.00 0.00 0.00 31 1013.1
20260503020124 24 147 0.0 4.8 0.00 0.00 0.00 32 1013.0
20260503015124 25 120 1.6 11.3 0.00 0.00 0.00 30 1013.1
20260503014120 25 167 0.0 6.4 0.00 0.00 0.00 29 1013.1
20260503013117 26 160 0.0 3.2 0.00 0.00 0.00 29 1013.1
20260503012116 26 155 0.0 11.3 0.00 0.00 0.00 29 1013.0
20260503011133 26 176 0.0 8.0 0.00 0.00 0.00 29 1013.1
20260503010129 26 160 1.6 11.3 0.00 0.00 0.00 29 1013.0
20260503005126 26 98 0.0 8.0 0.00 0.00 0.00 28 1012.9
20260503004124 26 175 1.6 11.3 0.00 0.00 0.00 27 1012.9
20260503003121 26 101 1.6 8.0 0.00 0.00 0.00 27 1013.0
20260503002117 26 145 1.6 8.0 0.00 0.00 0.00 28 1013.0
20260503001114 26 148 3.2 9.7 0.00 0.00 0.00 29 1012.9
20260503000114 26 176 3.2 12.9 0.00 0.00 0.00 27 1013.0
20260502235111 26 106 1.6 11.3 0.00 0.00 0.00 27 1013.0
20260502234129 26 162 0.0 9.7 0.00 0.00 0.00 29 1013.0
20260502233110 26 171 3.2 11.3 0.00 0.00 0.00 28 1013.0
20260502232127 26 151 1.6 9.7 0.00 0.00 0.00 28 1013.2
20260502231123 26 124 1.6 9.7 0.00 0.00 0.00 29 1013.4
20260502230124 26 165 0.0 8.0 0.00 0.00 0.00 28 1013.4
20260502225121 26 114 1.6 11.3 0.00 0.00 0.00 28 1013.6
20260502224118 25 115 0.0 8.0 0.00 0.00 0.00 31 1013.7
20260502223116 25 92 0.0 9.7 0.00 0.00 0.00 30 1013.9
20260502222117 25 120 3.2 12.9 0.00 0.00 0.00 30 1013.9
20260502221114 25 141 0.0 6.4 0.00 0.00 0.00 34 1014.0
20260502220112 24 166 1.6 9.7 0.00 0.00 0.00 34 1014.1
20260502215114 24 113 0.0 4.8 0.00 0.00 0.00 35 1014.1
20260502214151 24 96 3.2 8.0 0.00 0.00 0.00 36 1014.1
20260502213128 24 175 0.0 6.4 0.00 0.00 0.00 35 1014.2
20260502212125 24 98 6.4 12.9 0.00 0.00 0.00 34 1014.3
20260502211127 23 121 0.0 3.2 0.00 0.00 0.00 42 1014.4
20260502210126 22 120 0.0 1.6 0.00 0.00 0.00 40 1014.4
20260502205122 22 139 0.0 6.4 0.00 0.00 0.00 41 1014.5
20260502204124 22 92 0.0 8.0 0.00 0.00 0.00 45 1014.2
20260502203121 22 161 0.0 4.8 0.00 0.00 0.00 36 1014.8
20260502202117 23 92 0.0 1.6 0.00 0.00 0.00 37 1015.3
20260502201117 23 105 0.0 11.3 0.00 0.00 0.00 36 1015.2
20260502200115 23 104 1.6 9.7 0.00 0.00 0.00 35 1015.1
20260502195112 23 177 4.8 27.4 0.00 0.00 0.00 33 1015.1
20260502194112 24 127 0.0 16.1 0.00 0.00 0.00 34 1015.0